Clarksville, TN

7:00 PM CDT on August 21, 2017 (GMT -0500)
Outlaw

Weather History for KCKV - June, 2013

Change the Weather History Date:

Saturday, June 22, 2013

  Actual Average Record
Temperature  
Mean Temperature 77 °F 76 °F  
Max Temperature 87 °F 87 °F 100 °F (1988)
Min Temperature 67 °F 65 °F 47 °F (1992)
Degree Days  
Heating Degree Days 0    
Month to date heating degree days 0  
Since 1 June heating degree days  
Since 1 July heating degree days 3952  
Cooling Degree Days 12    
Month to date cooling degree days 204  
Year to date cooling degree days  
Since 1 June cooling degree days  
Growing Degree Days 26 (Base 50)    
Moisture  
Dew Point 67 °F    
Average Humidity 75    
Maximum Humidity 100    
Minimum Humidity 50    
Precipitation  
Precipitation 0.00 in 0.15 in 1.24 in (1977)
Month to date precipitation 2.05 3.36  
Year to date precipitation 24.98  
Sea Level Pressure  
Sea Level Pressure 30.12 in    
Wind  
Wind Speed 4 mph (South)    
Max Wind Speed 13 mph    
Max Gust Speed 22 mph    
Visibility 8 miles    
Events      
T = Trace of Precipitation, MM = Missing Value Source: NWS Daily Summary

Daily Weather History Graph

Daily Weather History Graph

Search for Another Location

Airport or City:

Trip Planner

Search our weather history database for the weather conditions in past years. The results will help you decide how hot, cold, wet, or windy it might be!

Date:

Astronomy

Jun. 22, 2013 Rise Set
Actual Time 5:31 AM CDT 8:11 PM CDT
Civil Twilight 5:01 AM CDT 8:42 PM CDT
Nautical Twilight 4:22 AM CDT 9:20 PM CDT
Astronomical Twilight 3:40 AM CDT 10:03 PM CDT
Moon 7:27 PM CDT 4:42 AM CDT
Length of Visible Light 15h 41m
Length of Day
14h 40m
Waxing Gibbous, 99% of the Moon is Illuminated
Jun 22
Waxing Gibbous
Jun 23
Full
Jun 29
Last Quarter
Jul 8
New
Jul 15
First Quarter

Hourly Weather History & Observations

Time (CDT) Temp. Heat Index Dew Point Humidity Pressure Visibility Wind Dir Wind Speed Gust Speed Precip Events Conditions
12:52 AM 73.9 °F - 69.1 °F 85% 30.12 in 10.0 mi South 4.6 mph - N/A   Clear
1:52 AM 71.1 °F - 68.0 °F 90% 30.12 in 10.0 mi SE 4.6 mph - N/A   Clear
2:52 AM 69.1 °F - 66.9 °F 93% 30.12 in 8.0 mi Calm Calm - N/A   Clear
3:52 AM 68.0 °F - 66.9 °F 96% 30.11 in 5.0 mi Calm Calm - N/A   Clear
4:52 AM 66.9 °F - 66.0 °F 97% 30.12 in 3.0 mi SE 3.5 mph - N/A   Clear
5:34 AM 66.2 °F - 66.2 °F 100% 30.14 in 2.0 mi ESE 3.5 mph - N/A   Clear
5:52 AM 66.9 °F - 66.0 °F 97% 30.14 in 2.0 mi SE 3.5 mph - N/A   Clear
6:25 AM 69.8 °F - 66.2 °F 88% 30.16 in 3.0 mi ESE 3.5 mph - N/A   Clear
6:52 AM 71.1 °F - 68.0 °F 90% 30.15 in 5.0 mi SE 3.5 mph - N/A   Clear
7:52 AM 75.0 °F - 68.0 °F 79% 30.17 in 10.0 mi South 5.8 mph - N/A   Clear
8:52 AM 79.0 °F - 68.0 °F 69% 30.18 in 10.0 mi SSW 4.6 mph - N/A   Clear
9:52 AM 82.0 °F 84.9 °F 68.0 °F 62% 30.18 in 10.0 mi SSW 6.9 mph - N/A   Clear
10:52 AM 84.0 °F 87.8 °F 69.1 °F 61% 30.18 in 10.0 mi SW 5.8 mph - N/A   Clear
11:52 AM 84.0 °F 86.5 °F 66.9 °F 56% 30.17 in 10.0 mi SSE 4.6 mph - N/A   Scattered Clouds
12:52 PM 84.9 °F 87.6 °F 66.9 °F 55% 30.15 in 10.0 mi SW 6.9 mph - N/A   Scattered Clouds
1:52 PM 86.0 °F 88.8 °F 66.9 °F 53% 30.14 in 10.0 mi SSW 9.2 mph - N/A   Scattered Clouds
2:52 PM 87.1 °F 89.9 °F 66.9 °F 51% 30.11 in 10.0 mi Variable 5.8 mph - N/A   Scattered Clouds
3:52 PM 87.1 °F 89.9 °F 66.9 °F 51% 30.07 in 10.0 mi SW 8.1 mph - N/A   Scattered Clouds
4:52 PM 87.1 °F 89.9 °F 66.9 °F 51% 30.07 in 10.0 mi Variable 4.6 mph - N/A   Scattered Clouds
5:52 PM 86.0 °F 88.2 °F 66.0 °F 51% 30.06 in 10.0 mi SSW 5.8 mph - N/A   Clear
6:52 PM 84.9 °F 87.1 °F 66.0 °F 53% 30.07 in 10.0 mi WSW 4.6 mph - N/A   Clear
7:52 PM 82.0 °F 84.5 °F 66.9 °F 60% 30.06 in 10.0 mi SW 3.5 mph - N/A   Clear
8:52 PM 80.1 °F 82.7 °F 68.0 °F 67% 30.08 in 10.0 mi SW 3.5 mph - N/A   Clear
9:52 PM 78.1 °F - 68.0 °F 71% 30.09 in 10.0 mi WSW 3.5 mph - N/A   Clear
10:52 PM 73.0 °F - 69.1 °F 87% 30.09 in 8.0 mi Calm Calm - N/A   Clear
11:52 PM 73.0 °F - 69.1 °F 87% 30.07 in 8.0 mi South 3.5 mph - N/A   Clear